Bergman, AR

8:13 PM CDT on September 29, 2016 (GMT -0500)
Boone County

Weather History for KHRO - November, 2013

Change the Weather History Date:

Wednesday, November 6, 2013

  Actual Average Record
Temperature  
Mean Temperature 49 °F 52 °F  
Max Temperature 60 °F 63 °F 80 °F (2004)
Min Temperature 38 °F 42 °F 17 °F (1959)
Degree Days  
Heating Degree Days 16 13  
Month to date heating degree days 82 72  
Since 1 July heating degree days 318 337  
Cooling Degree Days 0 0  
Month to date cooling degree days 0 0  
Year to date cooling degree days 1414 1412  
Moisture  
Dew Point 47 °F    
Average Humidity 87    
Maximum Humidity 100    
Minimum Humidity 73    
Precipitation  
Precipitation 0.48 in 0.14 in 1.79 in (1996)
Month to date precipitation 1.12 0.86  
Year to date precipitation 39.83 37.57  
Snow  
Snow 0.00 in 0.00 in 4.50 in (1951)
Month to date snowfall 0.0 0.0  
Since 1 July snowfall 0.0 0.1  
Since 1 September snowfall 0.0 0.1  
Snow Depth 0.00 in    
Sea Level Pressure  
Sea Level Pressure 30.11 in    
Wind  
Wind Speed 9 mph (WNW)    
Max Wind Speed 17 mph    
Max Gust Speed 26 mph    
Visibility 8 miles    
Events Rain    
T = Trace of Precipitation, MM = Missing Value Source: NWS Daily Summary

Daily Weather History Graph

Daily Weather History Graph

Search for Another Location

Airport or City:

Trip Planner

Search our weather history database for the weather conditions in past years. The results will help you decide how hot, cold, wet, or windy it might be!

Date:

Astronomy

Nov. 06, 2013 Rise Set
Actual Time 6:40 AM CST 5:11 PM CST
Civil Twilight 6:13 AM CST 5:38 PM CST
Nautical Twilight 5:43 AM CST 6:08 PM CST
Astronomical Twilight 5:13 AM CST 6:38 PM CST
Moon 9:53 AM CST (11/6) 8:18 PM CST (11/6)
Length of Visible Light 11h 24m
Length of Day
10h 30m
Waxing Crescent, 14% of the Moon is Illuminated
Nov 6
Waxing Crescent
Nov 9
First Quarter
Nov 17
Full
Nov 25
Last Quarter
Dec 2
New

Hourly Weather History & Observations

Time (CST) Temp. Windchill Dew Point Humidity Pressure Visibility Wind Dir Wind Speed Gust Speed Precip Events Conditions
12:21 AM 59.0 °F - 57.2 °F 94% 29.99 in 7.0 mi SSE 13.8 mph - 0.05 in Rain Rain
12:36 AM 59.0 °F - 57.2 °F 94% 29.98 in 4.0 mi SSE 13.8 mph - 0.09 in Rain Rain
12:50 AM 59.0 °F - 57.2 °F 94% 29.98 in 7.0 mi SSE 11.5 mph - 0.10 in Rain Light Rain
12:53 AM 59.0 °F - 57.9 °F 96% 29.96 in 8.0 mi SSE 11.5 mph - 0.10 in Rain Light Rain
1:26 AM 60.8 °F - 59.0 °F 94% 29.96 in 10.0 mi SSE 15.0 mph - 0.01 in Rain Light Rain
1:49 AM 60.8 °F - 59.0 °F 94% 29.96 in 7.0 mi SSE 15.0 mph - 0.02 in Rain Light Rain
1:53 AM 60.1 °F - 59.0 °F 96% 29.94 in 9.0 mi SSE 15.0 mph - 0.02 in Rain Light Rain
2:53 AM 60.1 °F - 59.0 °F 96% 29.93 in 10.0 mi SSE 13.8 mph - 0.08 in Rain Light Rain
3:53 AM 60.1 °F - 59.0 °F 96% 29.92 in 10.0 mi South 13.8 mph - 0.02 in Rain Light Rain
4:29 AM 60.8 °F - 59.0 °F 94% 29.97 in 2.5 mi West 13.8 mph 24.2 mph 0.11 in Rain Rain
4:53 AM 59.0 °F - 57.0 °F 93% 29.96 in 9.0 mi West 4.6 mph - 0.19 in Rain Light Rain
5:53 AM 57.9 °F - 57.0 °F 97% 29.99 in 10.0 mi WNW 4.6 mph - 0.09 in   Overcast
6:33 AM 57.2 °F - 57.2 °F 100% 30.01 in 10.0 mi West 4.6 mph - 0.00 in Rain Light Rain
6:53 AM 57.9 °F - 57.0 °F 97% 29.99 in 10.0 mi Calm Calm - 0.00 in Rain Light Rain
7:07 AM 57.2 °F - 57.2 °F 100% 30.01 in 10.0 mi Calm Calm - N/A   Overcast
7:18 AM 57.2 °F - 57.2 °F 100% 30.00 in 10.0 mi Calm Calm - N/A   Overcast
7:31 AM 57.2 °F - 55.4 °F 94% 30.02 in 10.0 mi WNW 10.4 mph 20.7 mph N/A   Overcast
7:53 AM 52.0 °F - 51.1 °F 97% 30.04 in 6.0 mi WNW 11.5 mph 17.3 mph N/A   Overcast
8:19 AM 50.0 °F - 48.2 °F 94% 30.07 in 2.5 mi WNW 8.1 mph 18.4 mph N/A   Overcast
8:34 AM 48.2 °F - 46.4 °F 93% 30.08 in 3.0 mi NW 12.7 mph - N/A   Overcast
8:53 AM 48.0 °F - 46.0 °F 93% 30.09 in 3.0 mi NW 11.5 mph 18.4 mph N/A   Overcast
9:06 AM 46.4 °F 40.1 °F 46.4 °F 100% 30.11 in 2.5 mi NW 15.0 mph 20.7 mph N/A   Overcast
9:19 AM 46.4 °F 40.4 °F 44.6 °F 93% 30.11 in 5.0 mi WNW 13.8 mph 23.0 mph N/A   Overcast
9:34 AM 46.4 °F 40.4 °F 44.6 °F 93% 30.12 in 2.5 mi WNW 13.8 mph 24.2 mph N/A   Overcast
9:50 AM 44.6 °F 38.4 °F 44.6 °F 100% 30.12 in 3.0 mi NW 12.7 mph 20.7 mph N/A   Overcast
9:53 AM 45.0 °F 38.9 °F 44.1 °F 97% 30.12 in 4.0 mi NW 12.7 mph 20.7 mph N/A   Overcast
10:26 AM 44.6 °F 39.2 °F 42.8 °F 93% 30.13 in 4.0 mi WNW 10.4 mph - N/A   Overcast
10:53 AM 44.1 °F 37.7 °F 42.1 °F 93% 30.15 in 8.0 mi WNW 12.7 mph 19.6 mph N/A   Overcast
11:00 AM 44.6 °F 39.2 °F 42.8 °F 93% 30.15 in 6.0 mi WNW 10.4 mph 19.6 mph N/A   Overcast
11:49 AM 42.8 °F 35.4 °F 41.0 °F 93% 30.16 in 5.0 mi WNW 15.0 mph 23.0 mph N/A   Overcast
11:53 AM 42.1 °F 35.2 °F 41.0 °F 96% 30.16 in 5.0 mi WNW 12.7 mph 23.0 mph N/A   Overcast
12:50 PM 42.8 °F 35.1 °F 39.2 °F 87% 30.14 in 10.0 mi NW 16.1 mph 25.3 mph N/A   Overcast
12:53 PM 42.1 °F 33.6 °F 39.9 °F 92% 30.14 in 10.0 mi NW 18.4 mph 25.3 mph N/A   Overcast
1:53 PM 42.1 °F 34.9 °F 39.0 °F 89% 30.16 in 10.0 mi NW 13.8 mph 23.0 mph N/A   Overcast
2:53 PM 41.0 °F 35.2 °F 37.9 °F 89% 30.20 in 10.0 mi WNW 9.2 mph 18.4 mph N/A   Overcast
3:16 PM 41.0 °F 34.3 °F 37.4 °F 87% 30.20 in 10.0 mi NW 11.5 mph 19.6 mph N/A   Overcast
3:53 PM 41.0 °F 34.7 °F 37.0 °F 86% 30.21 in 10.0 mi NW 10.4 mph 21.9 mph N/A   Overcast
4:29 PM 42.8 °F 36.6 °F 37.4 °F 81% 30.22 in 10.0 mi NW 11.5 mph 17.3 mph N/A   Overcast
4:53 PM 42.1 °F 36.6 °F 36.0 °F 79% 30.23 in 10.0 mi NW 9.2 mph 16.1 mph N/A   Overcast
5:53 PM 42.1 °F 36.1 °F 35.1 °F 76% 30.25 in 10.0 mi NNW 10.4 mph 19.6 mph N/A   Overcast
6:53 PM 41.0 °F 34.7 °F 34.0 °F 76% 30.27 in 10.0 mi NW 10.4 mph 20.7 mph N/A   Overcast
7:53 PM 41.0 °F 35.8 °F 34.0 °F 76% 30.29 in - NNW 8.1 mph - N/A   Overcast
8:53 PM 39.9 °F 35.1 °F 33.1 °F 77% 30.31 in 10.0 mi NNW 6.9 mph - N/A   Overcast
9:53 PM 39.9 °F 35.1 °F 33.1 °F 77% 30.34 in 10.0 mi NNW 6.9 mph - N/A   Overcast
10:53 PM 39.0 °F - 34.0 °F 82% 30.35 in 10.0 mi Calm Calm - N/A   Overcast
11:53 PM 37.9 °F 34.4 °F 33.1 °F 83% 30.36 in 10.0 mi NW 4.6 mph - N/A   Overcast